Time,TemperatureF,DewpointF,PressureIn,WindDirection,WindDirectionDegrees,WindSpeedMPH,WindSpeedGustMPH,Humidity,HourlyPrecipIn,Conditions,Clouds,dailyrainin,SolarRadiationWatts/m^2,SoftwareType,DateUTC
2013-07-10 00:01:00,72.2,69.4,30.01,West,267,0.0,3.0,91,0.02,,CLR,0.05,0.00,VWS V14.01,2013-07-10 04:01:00,
2013-07-10 00:02:00,72.0,69.2,30.00,West,267,0.0,3.0,91,0.02,,CLR,0.05,0.00,VWS V14.01,2013-07-10 04:02:00,
2013-07-10 00:03:00,72.0,69.2,30.00,West,267,0.0,0.0,91,0.02,,CLR,0.00,0.00,VWS V14.01,2013-07-10 04:03:00,
2013-07-10 00:08:00,71.8,69.0,30.00,West,267,0.0,0.0,91,0.02,,CLR,0.00,0.00,VWS V14.01,2013-07-10 04:08:00,
2013-07-10 00:14:00,71.8,69.3,30.00,West,267,1.0,1.0,92,0.01,,CLR,0.00,0.00,VWS V14.01,2013-07-10 04:14:00,
2013-07-10 00:19:00,71.8,69.3,30.01,West,267,0.0,2.0,92,0.01,,CLR,0.00,0.00,VWS V14.01,2013-07-10 04:19:00,
2013-07-10 00:24:00,71.8,69.3,30.01,West,267,0.0,0.0,92,0.00,,CLR,0.00,0.00,VWS V14.01,2013-07-10 04:24:00,
2013-07-10 00:29:00,71.8,69.3,30.01,West,267,0.0,0.0,92,0.00,,CLR,0.00,0.00,VWS V14.01,2013-07-10 04:29:00,
2013-07-10 00:34:00,71.8,69.3,30.00,West,267,0.0,0.0,92,0.00,,CLR,0.00,0.00,VWS V14.01,2013-07-10 04:34:00,
2013-07-10 00:39:00,71.7,69.6,30.00,West,267,0.0,0.0,93,0.00,,CLR,0.00,0.00,VWS V14.01,2013-07-10 04:39:00,
2013-07-10 00:44:00,71.7,69.6,30.00,West,267,0.0,0.0,93,0.00,,CLR,0.00,0.00,VWS V14.01,2013-07-10 04:44:00,
2013-07-10 00:49:00,71.8,69.7,29.99,West,267,0.0,2.0,93,0.00,,CLR,0.00,0.00,VWS V14.01,2013-07-10 04:49:00,
2013-07-10 00:54:00,71.7,69.6,29.99,West,267,0.0,0.0,93,0.00,,CLR,0.00,0.00,VWS V14.01,2013-07-10 04:54:00,
2013-07-10 01:00:00,71.7,69.9,29.99,West,267,0.0,0.0,94,0.00,,CLR,0.00,0.00,VWS V14.01,2013-07-10 05:00:00,
2013-07-10 01:05:00,71.8,70.0,29.99,West,267,0.0,0.0,94,0.00,,CLR,0.00,0.00,VWS V14.01,2013-07-10 05:05:00,
2013-07-10 01:10:00,71.7,69.9,29.99,West,267,0.0,0.0,94,0.00,,CLR,0.00,0.00,VWS V14.01,2013-07-10 05:10:00,
2013-07-10 01:15:00,71.7,69.9,29.99,West,267,0.0,0.0,94,0.00,,CLR,0.00,0.00,VWS V14.01,2013-07-10 05:15:00,
2013-07-10 01:20:00,71.7,69.9,29.98,West,267,0.0,0.0,94,0.00,,CLR,0.00,0.00,VWS V14.01,2013-07-10 05:20:00,
2013-07-10 01:25:00,71.5,69.7,29.98,West,267,0.0,0.0,94,0.00,,CLR,0.00,0.00,VWS V14.01,2013-07-10 05:25:00,
2013-07-10 01:30:00,71.7,70.2,29.98,West,267,0.0,0.0,95,0.00,,CLR,0.00,0.00,VWS V14.01,2013-07-10 05:30:00,
2013-07-10 01:35:00,71.7,70.2,29.98,West,267,0.0,0.0,95,0.00,,CLR,0.00,0.00,VWS V14.01,2013-07-10 05:35:00,
2013-07-10 01:40:00,71.7,70.2,29.98,West,267,0.0,0.0,95,0.00,,CLR,0.00,0.00,VWS V14.01,2013-07-10 05:40:00,
2013-07-10 01:45:00,71.7,70.2,29.98,West,267,0.0,0.0,95,0.00,,CLR,0.00,0.00,VWS V14.01,2013-07-10 05:45:00,
2013-07-10 01:50:00,71.5,70.0,29.99,West,267,0.0,0.0,95,0.00,,CLR,0.00,0.00,VWS V14.01,2013-07-10 05:50:00,
2013-07-10 01:55:00,71.5,70.3,29.99,West,267,0.0,0.0,96,0.00,,CLR,0.00,0.00,VWS V14.01,2013-07-10 05:55:00,
2013-07-10 02:01:00,71.5,70.3,29.99,SSW,212,0.0,2.0,96,0.00,,CLR,0.00,0.00,VWS V14.01,2013-07-10 06:01:00,
2013-07-10 02:06:00,71.3,69.8,29.98,SSW,210,0.0,2.0,95,0.00,,CLR,0.00,0.00,VWS V14.01,2013-07-10 06:06:00,
2013-07-10 02:11:00,71.1,69.6,29.98,SSW,212,0.0,2.0,95,0.00,,CLR,0.00,0.00,VWS V14.01,2013-07-10 06:11:00,
2013-07-10 02:16:00,71.0,69.5,29.98,SSW,212,0.0,0.0,95,0.00,,CLR,0.00,0.00,VWS V14.01,2013-07-10 06:16:00,
2013-07-10 02:21:00,71.0,69.5,29.98,East,99,0.0,1.0,95,0.00,,CLR,0.00,0.00,VWS V14.01,2013-07-10 06:21:00,
2013-07-10 02:26:00,71.1,69.9,29.98,East,99,0.0,0.0,96,0.00,,CLR,0.00,0.00,VWS V14.01,2013-07-10 06:26:00,
2013-07-10 02:31:00,71.3,70.1,29.98,East,99,0.0,0.0,96,0.00,,CLR,0.00,0.00,VWS V14.01,2013-07-10 06:31:00,
2013-07-10 02:36:00,71.1,69.6,29.97,ESE,113,0.0,0.0,95,0.00,,CLR,0.00,0.00,VWS V14.01,2013-07-10 06:36:00,
2013-07-10 02:41:00,70.8,69.3,29.97,ESE,113,0.0,0.0,95,0.00,,CLR,0.00,0.00,VWS V14.01,2013-07-10 06:41:00,
2013-07-10 02:46:00,70.8,69.3,29.97,ESE,113,0.0,0.0,95,0.00,,CLR,0.00,0.00,VWS V14.01,2013-07-10 06:46:00,
2013-07-10 02:52:00,70.6,69.1,29.97,ESE,113,0.0,0.0,95,0.00,,CLR,0.00,0.00,VWS V14.01,2013-07-10 06:52:00,
2013-07-10 02:57:00,70.6,69.1,29.97,ESE,113,0.0,0.0,95,0.00,,CLR,0.00,0.00,VWS V14.01,2013-07-10 06:57:00,
2013-07-10 03:02:00,70.5,69.0,29.96,ESE,113,0.0,0.0,95,0.00,,CLR,0.00,0.00,VWS V14.01,2013-07-10 07:02:00,
2013-07-10 03:07:00,70.5,69.3,29.96,ESE,113,0.0,0.0,96,0.00,,CLR,0.00,0.00,VWS V14.01,2013-07-10 07:07:00,
2013-07-10 03:12:00,70.3,69.1,29.96,ESE,113,0.0,0.0,96,0.00,,CLR,0.00,0.00,VWS V14.01,2013-07-10 07:12:00,
2013-07-10 03:17:00,70.3,68.8,29.97,ESE,113,0.0,0.0,95,0.00,,CLR,0.00,0.00,VWS V14.01,2013-07-10 07:17:00,
2013-07-10 03:22:00,70.3,69.1,29.97,ESE,113,0.0,0.0,96,0.00,,CLR,0.00,0.00,VWS V14.01,2013-07-10 07:22:00,
2013-07-10 03:27:00,70.5,69.3,29.97,ESE,113,0.0,0.0,96,0.00,,CLR,0.00,0.00,VWS V14.01,2013-07-10 07:27:00,
2013-07-10 03:32:00,70.5,69.3,29.97,ESE,113,0.0,0.0,96,0.00,,CLR,0.00,0.00,VWS V14.01,2013-07-10 07:32:00,
2013-07-10 03:37:00,70.3,69.1,29.97,ESE,113,0.0,0.0,96,0.00,,CLR,0.00,0.00,VWS V14.01,2013-07-10 07:37:00,
2013-07-10 03:42:00,70.3,69.1,29.97,ESE,113,0.0,0.0,96,0.00,,CLR,0.00,0.00,VWS V14.01,2013-07-10 07:42:00,
2013-07-10 03:47:00,70.1,68.9,29.97,ESE,113,0.0,0.0,96,0.00,,CLR,0.00,0.00,VWS V14.01,2013-07-10 07:47:00,
2013-07-10 03:53:00,70.1,68.9,29.97,ESE,113,0.0,0.0,96,0.00,,CLR,0.00,0.00,VWS V14.01,2013-07-10 07:53:00,
2013-07-10 03:58:00,70.1,68.9,29.97,ESE,113,0.0,0.0,96,0.00,,CLR,0.00,0.00,VWS V14.01,2013-07-10 07:58:00,
2013-07-10 04:03:00,70.1,68.9,29.97,ESE,113,0.0,0.0,96,0.00,,CLR,0.00,0.00,VWS V14.01,2013-07-10 08:03:00,
2013-07-10 04:08:00,69.9,68.7,29.97,ESE,113,0.0,0.0,96,0.01,,CLR,0.01,0.00,VWS V14.01,2013-07-10 08:08:00,
2013-07-10 04:13:00,69.9,68.7,29.97,ESE,113,0.0,0.0,96,0.01,,CLR,0.01,0.00,VWS V14.01,2013-07-10 08:13:00,
2013-07-10 04:18:00,69.9,68.7,29.97,ESE,113,0.0,0.0,96,0.01,,CLR,0.01,0.00,VWS V14.01,2013-07-10 08:18:00,
2013-07-10 04:23:00,69.9,68.7,29.97,ESE,113,0.0,0.0,96,0.01,,CLR,0.01,0.00,VWS V14.01,2013-07-10 08:23:00,
2013-07-10 04:28:00,69.9,68.7,29.97,ESE,113,0.0,0.0,96,0.02,,CLR,0.02,0.00,VWS V14.01,2013-07-10 08:28:00,
2013-07-10 04:33:00,69.9,68.7,29.96,ESE,113,0.0,0.0,96,0.02,,CLR,0.02,0.00,VWS V14.01,2013-07-10 08:33:00,
2013-07-10 04:38:00,69.9,68.7,29.96,ESE,113,0.0,0.0,96,0.02,,CLR,0.02,0.00,VWS V14.01,2013-07-10 08:38:00,
2013-07-10 04:43:00,69.8,68.6,29.96,WSW,240,0.0,2.0,96,0.03,,CLR,0.03,0.00,VWS V14.01,2013-07-10 08:43:00,
2013-07-10 04:49:00,69.6,68.4,29.96,WSW,240,0.0,2.0,96,0.03,,CLR,0.03,0.00,VWS V14.01,2013-07-10 08:49:00,
2013-07-10 04:54:00,69.6,68.4,29.96,WSW,240,0.0,0.0,96,0.03,,CLR,0.03,0.00,VWS V14.01,2013-07-10 08:54:00,
2013-07-10 04:59:00,69.4,68.2,29.96,WSW,240,0.0,0.0,96,0.03,,CLR,0.03,0.00,VWS V14.01,2013-07-10 08:59:00,
2013-07-10 05:04:00,69.4,68.5,29.96,WSW,240,0.0,0.0,97,0.03,,CLR,0.03,0.00,VWS V14.01,2013-07-10 09:04:00,
2013-07-10 05:09:00,69.6,68.7,29.96,WSW,240,0.0,0.0,97,0.03,,CLR,0.03,0.00,VWS V14.01,2013-07-10 09:09:00,
2013-07-10 05:14:00,69.6,68.7,29.96,WSW,240,0.0,0.0,97,0.02,,CLR,0.03,0.00,VWS V14.01,2013-07-10 09:14:00,
2013-07-10 05:19:00,69.6,68.7,29.95,WSW,240,0.0,0.0,97,0.02,,CLR,0.03,0.00,VWS V14.01,2013-07-10 09:19:00,
2013-07-10 05:24:00,69.6,68.7,29.95,WSW,240,0.0,0.0,97,0.02,,CLR,0.03,0.00,VWS V14.01,2013-07-10 09:24:00,
2013-07-10 05:29:00,69.4,68.5,29.95,WSW,240,2.0,2.0,97,0.02,,CLR,0.03,0.00,VWS V14.01,2013-07-10 09:29:00,
2013-07-10 05:34:00,69.3,68.4,29.95,SW,227,3.0,3.0,97,0.01,,CLR,0.03,0.00,VWS V14.01,2013-07-10 09:34:00,
2013-07-10 05:40:00,69.1,68.2,29.95,WSW,253,0.0,6.0,97,0.01,,CLR,0.03,0.00,VWS V14.01,2013-07-10 09:40:00,
2013-07-10 05:45:00,69.1,68.2,29.95,SSW,202,1.0,3.0,97,0.00,,CLR,0.03,0.00,VWS V14.01,2013-07-10 09:45:00,
2013-07-10 05:50:00,68.9,68.0,29.95,WSW,248,1.0,6.0,97,0.00,,CLR,0.03,0.00,VWS V14.01,2013-07-10 09:50:00,
2013-07-10 05:55:00,68.9,68.0,29.95,SW,226,1.0,6.0,97,0.00,,CLR,0.03,0.00,VWS V14.01,2013-07-10 09:55:00,
2013-07-10 06:00:00,68.9,68.0,29.95,WSW,241,3.0,6.0,97,0.00,,CLR,0.03,0.00,VWS V14.01,2013-07-10 10:00:00,
2013-07-10 06:05:00,68.9,68.0,29.95,SSW,210,2.0,2.0,97,0.00,,CLR,0.03,5.00,VWS V14.01,2013-07-10 10:05:00,
2013-07-10 06:10:00,68.9,68.0,29.95,SSW,210,0.0,2.0,97,0.00,,CLR,0.03,7.00,VWS V14.01,2013-07-10 10:10:00,
2013-07-10 06:15:00,68.9,68.0,29.95,SSW,210,0.0,0.0,97,0.00,,CLR,0.03,11.00,VWS V14.01,2013-07-10 10:15:00,
2013-07-10 06:20:00,68.9,68.0,29.95,SSW,210,0.0,0.0,97,0.00,,CLR,0.03,12.00,VWS V14.01,2013-07-10 10:20:00,
2013-07-10 06:25:00,68.9,68.0,29.95,SSW,210,0.0,0.0,97,0.00,,CLR,0.03,16.00,VWS V14.01,2013-07-10 10:25:00,
2013-07-10 06:30:00,69.1,68.2,29.95,SSW,210,0.0,0.0,97,0.00,,CLR,0.03,19.00,VWS V14.01,2013-07-10 10:30:00,
2013-07-10 06:36:00,68.9,68.0,29.95,SSW,210,0.0,1.0,97,0.00,,CLR,0.03,25.00,VWS V14.01,2013-07-10 10:36:00,
2013-07-10 06:41:00,69.1,68.2,29.95,SSW,210,0.0,1.0,97,0.00,,CLR,0.03,28.00,VWS V14.01,2013-07-10 10:41:00,
2013-07-10 06:46:00,69.1,68.2,29.95,SSW,210,0.0,0.0,97,0.00,,CLR,0.03,33.00,VWS V14.01,2013-07-10 10:46:00,
2013-07-10 06:51:00,69.1,68.2,29.96,SSW,210,0.0,0.0,97,0.00,,CLR,0.03,37.00,VWS V14.01,2013-07-10 10:51:00,
2013-07-10 06:56:00,69.1,68.2,29.96,SSW,210,0.0,2.0,97,0.00,,CLR,0.03,42.00,VWS V14.01,2013-07-10 10:56:00,
2013-07-10 07:01:00,69.1,68.2,29.96,South,189,0.0,2.0,97,0.00,,CLR,0.03,42.00,VWS V14.01,2013-07-10 11:01:00,
2013-07-10 07:06:00,69.3,68.4,29.96,SSW,210,0.0,1.0,97,0.00,,CLR,0.03,40.00,VWS V14.01,2013-07-10 11:06:00,
2013-07-10 07:11:00,69.3,68.4,29.96,SW,223,0.0,2.0,97,0.00,,CLR,0.03,44.00,VWS V14.01,2013-07-10 11:11:00,
2013-07-10 07:16:00,69.3,68.4,29.96,SW,223,0.0,1.0,97,0.00,,CLR,0.03,42.00,VWS V14.01,2013-07-10 11:16:00,
2013-07-10 07:21:00,69.4,68.5,29.96,SSW,192,0.0,1.0,97,0.00,,CLR,0.03,42.00,VWS V14.01,2013-07-10 11:21:00,
2013-07-10 07:27:00,69.4,68.5,29.96,WSW,240,0.0,3.0,97,0.00,,CLR,0.03,60.00,VWS V14.01,2013-07-10 11:27:00,
2013-07-10 07:32:00,69.6,68.7,29.96,WSW,239,0.0,3.0,97,0.00,,CLR,0.03,67.00,VWS V14.01,2013-07-10 11:32:00,
2013-07-10 07:37:00,69.6,68.7,29.96,WSW,239,0.0,4.0,97,0.00,,CLR,0.03,83.00,VWS V14.01,2013-07-10 11:37:00,
2013-07-10 07:42:00,69.8,68.9,29.96,WSW,239,0.0,4.0,97,0.00,,CLR,0.03,77.00,VWS V14.01,2013-07-10 11:42:00,
2013-07-10 07:47:00,69.8,68.9,29.96,WSW,239,0.0,0.0,97,0.00,,CLR,0.03,58.00,VWS V14.01,2013-07-10 11:47:00,
2013-07-10 07:52:00,69.9,69.0,29.96,WSW,239,0.0,0.0,97,0.00,,CLR,0.03,56.00,VWS V14.01,2013-07-10 11:52:00,
2013-07-10 07:57:00,70.1,69.2,29.96,WSW,239,0.0,0.0,97,0.00,,CLR,0.03,74.00,VWS V14.01,2013-07-10 11:57:00,
2013-07-10 08:02:00,70.3,69.4,29.96,WSW,239,0.0,0.0,97,0.00,,CLR,0.03,76.00,VWS V14.01,2013-07-10 12:02:00,
2013-07-10 08:07:00,70.3,69.4,29.96,WSW,239,0.0,1.0,97,0.00,,CLR,0.03,69.00,VWS V14.01,2013-07-10 12:07:00,
2013-07-10 08:12:00,70.3,69.4,29.96,WSW,239,0.0,2.0,97,0.00,,CLR,0.03,69.00,VWS V14.01,2013-07-10 12:12:00,
2013-07-10 08:18:00,70.1,69.2,29.97,WSW,239,0.0,1.0,97,0.00,,CLR,0.03,72.00,VWS V14.01,2013-07-10 12:18:00,
2013-07-10 08:23:00,70.3,69.4,29.97,WSW,239,0.0,1.0,97,0.00,,CLR,0.03,86.00,VWS V14.01,2013-07-10 12:23:00,
2013-07-10 08:28:00,70.3,69.4,29.97,WSW,239,0.0,1.0,97,0.00,,CLR,0.03,93.00,VWS V14.01,2013-07-10 12:28:00,
2013-07-10 08:33:00,70.5,69.6,29.97,WSW,239,0.0,0.0,97,0.00,,CLR,0.03,95.00,VWS V14.01,2013-07-10 12:33:00,
2013-07-10 08:38:00,70.6,69.7,29.97,WSW,239,0.0,0.0,97,0.00,,CLR,0.03,81.00,VWS V14.01,2013-07-10 12:38:00,
2013-07-10 08:43:00,70.8,69.9,29.97,WSW,239,0.0,0.0,97,0.00,,CLR,0.03,67.00,VWS V14.01,2013-07-10 12:43:00,
2013-07-10 08:48:00,70.8,69.9,29.97,WSW,239,0.0,0.0,97,0.00,,CLR,0.03,65.00,VWS V14.01,2013-07-10 12:48:00,
2013-07-10 08:53:00,70.8,69.9,29.97,WSW,239,0.0,0.0,97,0.01,,CLR,0.04,58.00,VWS V14.01,2013-07-10 12:53:00,
2013-07-10 08:58:00,71.0,70.1,29.97,WSW,239,0.0,0.0,97,0.01,,CLR,0.04,48.00,VWS V14.01,2013-07-10 12:58:00,
2013-07-10 09:03:00,71.0,69.8,29.97,WSW,239,0.0,0.0,96,0.01,,CLR,0.04,39.00,VWS V14.01,2013-07-10 13:03:00,
2013-07-10 09:08:00,71.0,69.8,29.97,WSW,239,0.0,0.0,96,0.01,,CLR,0.04,37.00,VWS V14.01,2013-07-10 13:08:00,
2013-07-10 09:14:00,70.8,69.6,29.97,WSW,239,0.0,0.0,96,0.01,,CLR,0.04,35.00,VWS V14.01,2013-07-10 13:14:00,
2013-07-10 09:19:00,70.8,69.6,29.97,WSW,239,0.0,0.0,96,0.01,,CLR,0.04,33.00,VWS V14.01,2013-07-10 13:19:00,
2013-07-10 09:24:00,71.0,70.1,29.97,WSW,239,0.0,0.0,97,0.01,,CLR,0.04,37.00,VWS V14.01,2013-07-10 13:24:00,
2013-07-10 09:29:00,71.0,69.8,29.97,WSW,239,0.0,1.0,96,0.01,,CLR,0.04,51.00,VWS V14.01,2013-07-10 13:29:00,
2013-07-10 09:34:00,71.0,69.8,29.98,WSW,239,0.0,2.0,96,0.01,,CLR,0.04,49.00,VWS V14.01,2013-07-10 13:34:00,
2013-07-10 09:39:00,71.0,70.1,29.98,WSW,239,0.0,2.0,97,0.01,,CLR,0.04,46.00,VWS V14.01,2013-07-10 13:39:00,
2013-07-10 09:44:00,71.0,70.1,29.98,WSW,239,0.0,0.0,97,0.01,,CLR,0.04,48.00,VWS V14.01,2013-07-10 13:44:00,
2013-07-10 09:49:00,71.0,70.1,29.98,WSW,239,0.0,0.0,97,0.01,,CLR,0.04,53.00,VWS V14.01,2013-07-10 13:49:00,
2013-07-10 09:54:00,71.1,70.2,29.98,WSW,239,0.0,0.0,97,0.00,,CLR,0.04,91.00,VWS V14.01,2013-07-10 13:54:00,
2013-07-10 09:59:00,71.3,70.4,29.98,WSW,239,0.0,0.0,97,0.00,,CLR,0.04,118.00,VWS V14.01,2013-07-10 13:59:00,
2013-07-10 10:00:00,71.3,70.4,29.98,WSW,239,0.0,0.0,97,0.00,,CLR,0.04,118.00,VWS V14.01,2013-07-10 14:00:00,
2013-07-10 10:05:00,71.5,70.6,29.98,WSW,239,0.0,1.0,97,0.00,,CLR,0.04,100.00,VWS V14.01,2013-07-10 14:05:00,
2013-07-10 10:10:00,71.5,70.6,29.98,WSW,239,0.0,1.0,97,0.00,,CLR,0.04,123.00,VWS V14.01,2013-07-10 14:10:00,
2013-07-10 10:15:00,71.8,70.9,29.98,WSW,239,0.0,0.0,97,0.00,,CLR,0.04,134.00,VWS V14.01,2013-07-10 14:15:00,
2013-07-10 10:21:00,72.0,71.1,29.98,WSW,239,0.0,0.0,97,0.00,,CLR,0.04,130.00,VWS V14.01,2013-07-10 14:21:00,
2013-07-10 10:26:00,71.8,70.9,29.98,WSW,239,0.0,0.0,97,0.00,,CLR,0.04,139.00,VWS V14.01,2013-07-10 14:26:00,
2013-07-10 10:31:00,71.8,70.9,29.98,SSW,205,2.0,5.0,97,0.00,,CLR,0.04,137.00,VWS V14.01,2013-07-10 14:31:00,
2013-07-10 10:36:00,72.0,71.1,29.98,SW,220,2.0,4.0,97,0.00,,CLR,0.04,113.00,VWS V14.01,2013-07-10 14:36:00,
2013-07-10 10:41:00,72.0,71.1,29.98,West,281,0.0,5.0,97,0.01,,CLR,0.05,148.00,VWS V14.01,2013-07-10 14:41:00,
2013-07-10 10:46:00,72.0,70.8,29.98,WNW,287,0.0,1.0,96,0.01,,CLR,0.05,151.00,VWS V14.01,2013-07-10 14:46:00,
2013-07-10 10:51:00,72.2,71.3,29.98,WSW,240,2.0,3.0,97,0.01,,CLR,0.05,153.00,VWS V14.01,2013-07-10 14:51:00,
2013-07-10 10:57:00,72.3,71.4,29.98,WSW,240,0.0,0.0,97,0.01,,CLR,0.05,137.00,VWS V14.01,2013-07-10 14:57:00,
2013-07-10 11:02:00,72.3,71.1,29.97,SW,226,1.0,3.0,96,0.01,,CLR,0.05,125.00,VWS V14.01,2013-07-10 15:02:00,
2013-07-10 11:07:00,72.5,71.3,29.97,SW,230,0.0,3.0,96,0.01,,CLR,0.05,155.00,VWS V14.01,2013-07-10 15:07:00,
2013-07-10 11:12:00,72.9,71.7,29.97,SW,230,0.0,3.0,96,0.01,,CLR,0.05,188.00,VWS V14.01,2013-07-10 15:12:00,
2013-07-10 11:17:00,73.2,72.0,29.97,SW,230,0.0,0.0,96,0.01,,CLR,0.05,223.00,VWS V14.01,2013-07-10 15:17:00,
2013-07-10 11:22:00,73.4,72.2,29.97,SW,230,0.0,2.0,96,0.01,,CLR,0.05,223.00,VWS V14.01,2013-07-10 15:22:00,
2013-07-10 11:28:00,73.4,72.2,29.97,SW,230,2.0,3.0,96,0.01,,CLR,0.05,185.00,VWS V14.01,2013-07-10 15:28:00,
2013-07-10 11:33:00,73.0,71.5,29.97,SW,236,0.0,0.0,95,0.01,,CLR,0.05,194.00,VWS V14.01,2013-07-10 15:33:00,
2013-07-10 11:38:00,73.2,72.0,29.97,SW,236,0.0,0.0,96,0.01,,CLR,0.05,194.00,VWS V14.01,2013-07-10 15:38:00,
2013-07-10 11:43:00,73.6,72.4,29.97,SW,236,0.0,0.0,96,0.00,,CLR,0.05,230.00,VWS V14.01,2013-07-10 15:43:00,
2013-07-10 11:48:00,73.7,72.5,29.97,SW,236,0.0,0.0,96,0.00,,CLR,0.05,188.00,VWS V14.01,2013-07-10 15:48:00,
2013-07-10 11:53:00,73.7,72.2,29.97,NNW,344,1.0,3.0,95,0.00,,CLR,0.05,165.00,VWS V14.01,2013-07-10 15:53:00,
2013-07-10 11:58:00,73.7,72.2,29.97,NNW,344,0.0,3.0,95,0.00,,CLR,0.05,130.00,VWS V14.01,2013-07-10 15:58:00,
2013-07-10 12:04:00,73.6,72.1,29.97,NNW,344,0.0,0.0,95,0.00,,CLR,0.05,125.00,VWS V14.01,2013-07-10 16:04:00,
2013-07-10 12:09:00,73.7,71.9,29.97,NNW,344,0.0,0.0,94,0.00,,CLR,0.05,188.00,VWS V14.01,2013-07-10 16:09:00,
2013-07-10 12:14:00,73.7,71.9,29.97,NNW,344,0.0,0.0,94,0.00,,CLR,0.05,320.00,VWS V14.01,2013-07-10 16:14:00,
2013-07-10 12:19:00,74.1,72.3,29.97,NNW,344,0.0,1.0,94,0.00,,CLR,0.05,410.00,VWS V14.01,2013-07-10 16:19:00,
2013-07-10 12:24:00,74.4,72.6,29.97,NNW,344,0.0,0.0,94,0.00,,CLR,0.05,417.00,VWS V14.01,2013-07-10 16:24:00,
2013-07-10 12:29:00,74.8,72.6,29.97,SW,236,0.0,2.0,93,0.00,,CLR,0.05,438.00,VWS V14.01,2013-07-10 16:29:00,
2013-07-10 12:34:00,75.0,72.5,29.97,SW,236,0.0,0.0,92,0.00,,CLR,0.05,348.00,VWS V14.01,2013-07-10 16:34:00,
2013-07-10 12:39:00,75.5,72.7,29.97,WSW,240,0.0,0.0,91,0.00,,CLR,0.05,352.00,VWS V14.01,2013-07-10 16:39:00,
2013-07-10 12:44:00,75.5,72.4,29.97,WSW,241,0.0,2.0,90,0.00,,CLR,0.05,336.00,VWS V14.01,2013-07-10 16:44:00,
2013-07-10 12:50:00,75.8,72.3,29.97,NW,311,0.0,2.0,89,0.00,,CLR,0.05,273.00,VWS V14.01,2013-07-10 16:50:00,
2013-07-10 12:55:00,75.8,72.3,29.97,NW,311,0.0,0.0,89,0.00,,CLR,0.05,304.00,VWS V14.01,2013-07-10 16:55:00,
2013-07-10 13:00:00,76.2,72.1,29.97,NW,311,0.0,0.0,87,0.00,,CLR,0.05,304.00,VWS V14.01,2013-07-10 17:00:00,
2013-07-10 13:05:00,76.4,72.2,29.95,NW,311,0.0,0.0,87,0.00,,CLR,0.05,396.00,VWS V14.01,2013-07-10 17:05:00,
2013-07-10 13:11:00,76.6,71.8,29.95,WSW,241,2.0,2.0,85,0.00,,CLR,0.05,396.00,VWS V14.01,2013-07-10 17:11:00,
2013-07-10 13:16:00,76.9,72.1,29.95,WSW,241,0.0,0.0,85,0.00,,CLR,0.05,413.00,VWS V14.01,2013-07-10 17:16:00,
2013-07-10 13:21:00,77.3,72.4,29.95,WSW,248,2.0,3.0,85,0.00,,CLR,0.05,505.00,VWS V14.01,2013-07-10 17:21:00,
2013-07-10 13:26:00,77.5,71.9,29.95,SSW,213,0.0,2.0,83,0.00,,CLR,0.05,616.00,VWS V14.01,2013-07-10 17:26:00,
2013-07-10 13:31:00,78.2,72.3,29.95,WSW,244,0.0,3.0,82,0.00,,CLR,0.05,989.00,VWS V14.01,2013-07-10 17:31:00,
2013-07-10 13:36:00,79.1,72.8,29.94,SSE,168,0.0,0.0,81,0.00,,CLR,0.05,757.00,VWS V14.01,2013-07-10 17:36:00,
2013-07-10 13:41:00,79.7,73.0,29.94,WSW,244,0.0,3.0,80,0.00,,CLR,0.05,618.00,VWS V14.01,2013-07-10 17:41:00,
2013-07-10 13:47:00,80.2,73.5,29.94,WSW,244,0.0,0.0,80,0.00,,CLR,0.05,1142.00,VWS V14.01,2013-07-10 17:47:00,
2013-07-10 13:52:00,81.0,73.5,29.93,WSW,258,0.0,3.0,78,0.00,,CLR,0.05,509.00,VWS V14.01,2013-07-10 17:52:00,
2013-07-10 13:57:00,81.0,72.7,29.93,SW,227,1.0,5.0,76,0.00,,CLR,0.05,362.00,VWS V14.01,2013-07-10 17:57:00,
2013-07-10 14:02:00,80.8,72.5,29.93,WSW,246,1.0,5.0,76,0.00,,CLR,0.05,327.00,VWS V14.01,2013-07-10 18:02:00,
2013-07-10 14:07:00,80.8,72.1,29.93,WSW,250,0.0,2.0,75,0.00,,CLR,0.05,343.00,VWS V14.01,2013-07-10 18:07:00,
2013-07-10 14:12:00,81.2,72.9,29.93,West,281,0.0,5.0,76,0.00,,CLR,0.05,343.00,VWS V14.01,2013-07-10 18:12:00,
2013-07-10 14:17:00,81.8,73.9,29.92,West,264,6.0,6.0,77,0.00,,CLR,0.05,996.00,VWS V14.01,2013-07-10 18:17:00,
2013-07-10 14:22:00,82.6,74.7,29.92,SW,219,2.0,6.0,77,0.00,,CLR,0.05,989.00,VWS V14.01,2013-07-10 18:22:00,
2013-07-10 14:27:00,82.8,72.4,29.92,WSW,250,7.0,7.0,71,0.00,,CLR,0.05,998.00,VWS V14.01,2013-07-10 18:27:00,
2013-07-10 14:33:00,83.1,72.7,29.90,WNW,284,0.0,7.0,71,0.00,,CLR,0.05,934.00,VWS V14.01,2013-07-10 18:33:00,
2013-07-10 14:38:00,83.3,72.9,29.90,West,264,2.0,7.0,71,0.00,,CLR,0.05,785.00,VWS V14.01,2013-07-10 18:38:00,
2013-07-10 14:43:00,83.7,73.3,29.90,West,272,1.0,1.0,71,0.00,,CLR,0.05,785.00,VWS V14.01,2013-07-10 18:43:00,
2013-07-10 14:48:00,84.3,73.0,29.90,SW,219,0.0,6.0,69,0.00,,CLR,0.05,878.00,VWS V14.01,2013-07-10 18:48:00,
2013-07-10 14:53:00,84.5,72.3,29.90,SSW,210,2.0,2.0,67,0.00,,CLR,0.05,878.00,VWS V14.01,2013-07-10 18:53:00,
2013-07-10 14:58:00,84.5,71.9,29.90,WSW,247,3.0,3.0,66,0.00,,CLR,0.05,878.00,VWS V14.01,2013-07-10 18:58:00,
2013-07-10 15:04:00,84.5,71.9,29.90,SSW,203,0.0,0.0,66,0.00,,CLR,0.05,873.00,VWS V14.01,2013-07-10 19:04:00,
2013-07-10 15:09:00,84.9,72.7,29.90,WSW,258,1.0,5.0,67,0.00,,CLR,0.05,871.00,VWS V14.01,2013-07-10 19:09:00,
2013-07-10 15:14:00,85.3,72.7,29.90,WSW,248,0.0,2.0,66,0.00,,CLR,0.05,883.00,VWS V14.01,2013-07-10 19:14:00,
2013-07-10 15:19:00,85.7,71.7,29.89,West,265,1.0,6.0,63,0.00,,CLR,0.05,883.00,VWS V14.01,2013-07-10 19:19:00,
2013-07-10 15:24:00,86.0,71.5,29.89,West,277,0.0,0.0,62,0.00,,CLR,0.05,864.00,VWS V14.01,2013-07-10 19:24:00,
2013-07-10 15:29:00,86.4,71.8,29.89,NNW,330,4.0,4.0,62,0.00,,CLR,0.05,866.00,VWS V14.01,2013-07-10 19:29:00,
2013-07-10 15:35:00,86.8,71.8,29.87,South,179,7.0,10.0,61,0.00,,CLR,0.05,838.00,VWS V14.01,2013-07-10 19:35:00,
2013-07-10 15:40:00,87.0,71.9,29.87,NW,309,2.0,10.0,61,0.00,,CLR,0.05,811.00,VWS V14.01,2013-07-10 19:40:00,
2013-07-10 15:45:00,86.8,71.3,29.87,WSW,237,4.0,4.0,60,0.00,,CLR,0.05,811.00,VWS V14.01,2013-07-10 19:45:00,
2013-07-10 15:50:00,86.8,70.8,29.85,SSW,202,3.0,5.0,59,0.00,,CLR,0.05,811.00,VWS V14.01,2013-07-10 19:50:00,
2013-07-10 15:55:00,86.8,72.2,29.85,SW,232,2.0,5.0,62,0.00,,CLR,0.05,679.00,VWS V14.01,2013-07-10 19:55:00,
2013-07-10 16:00:00,86.6,71.1,29.85,SSW,213,4.0,11.0,60,0.00,,CLR,0.05,792.00,VWS V14.01,2013-07-10 20:00:00,
2013-07-10 16:06:00,86.4,70.4,29.83,SW,232,8.0,9.0,59,0.00,,CLR,0.05,774.00,VWS V14.01,2013-07-10 20:06:00,
2013-07-10 16:11:00,86.4,71.4,29.83,West,271,2.0,12.0,61,0.00,,CLR,0.05,758.00,VWS V14.01,2013-07-10 20:11:00,
2013-07-10 16:16:00,86.4,71.4,29.83,SW,226,5.0,13.0,61,0.00,,CLR,0.05,741.00,VWS V14.01,2013-07-10 20:16:00,
2013-07-10 16:21:00,86.4,72.3,29.83,SW,230,4.0,13.0,63,0.00,,CLR,0.05,732.00,VWS V14.01,2013-07-10 20:21:00,
2013-07-10 16:26:00,86.4,71.8,29.83,WSW,248,1.0,9.0,62,0.00,,CLR,0.05,681.00,VWS V14.01,2013-07-10 20:26:00,
2013-07-10 16:31:00,86.6,72.0,29.83,SW,220,2.0,9.0,62,0.00,,CLR,0.05,688.00,VWS V14.01,2013-07-10 20:31:00,
2013-07-10 16:36:00,86.6,72.5,29.82,SSW,199,3.0,10.0,63,0.00,,CLR,0.05,686.00,VWS V14.01,2013-07-10 20:36:00,
2013-07-10 16:41:00,86.4,70.4,29.82,SSW,206,3.0,10.0,59,0.00,,CLR,0.05,619.00,VWS V14.01,2013-07-10 20:41:00,
2013-07-10 16:47:00,86.6,70.6,29.82,South,185,5.0,9.0,59,0.00,,CLR,0.05,646.00,VWS V14.01,2013-07-10 20:47:00,
2013-07-10 16:52:00,86.6,71.1,29.81,South,188,2.0,9.0,60,0.00,,CLR,0.05,653.00,VWS V14.01,2013-07-10 20:52:00,
2013-07-10 16:57:00,86.8,70.3,29.81,West,261,12.0,12.0,58,0.00,,CLR,0.05,618.00,VWS V14.01,2013-07-10 20:57:00,
2013-07-10 17:02:00,86.8,71.8,29.82,WSW,246,3.0,13.0,61,0.00,,CLR,0.05,470.00,VWS V14.01,2013-07-10 21:02:00,
2013-07-10 17:07:00,86.4,70.4,29.82,WSW,256,1.0,12.0,59,0.00,,CLR,0.05,424.00,VWS V14.01,2013-07-10 21:07:00,
2013-07-10 17:12:00,86.4,70.9,29.82,SW,227,1.0,12.0,60,0.00,,CLR,0.05,424.00,VWS V14.01,2013-07-10 21:12:00,
2013-07-10 17:17:00,86.0,70.0,29.83,West,267,1.0,7.0,59,0.00,,CLR,0.05,424.00,VWS V14.01,2013-07-10 21:17:00,
2013-07-10 17:23:00,86.0,69.5,29.83,West,268,2.0,7.0,58,0.00,,CLR,0.05,424.00,VWS V14.01,2013-07-10 21:23:00,
2013-07-10 17:28:00,86.0,70.5,29.83,SSW,209,2.0,7.0,60,0.00,,CLR,0.05,405.00,VWS V14.01,2013-07-10 21:28:00,
2013-07-10 17:33:00,86.0,70.5,29.83,WSW,248,3.0,3.0,60,0.00,,CLR,0.05,382.00,VWS V14.01,2013-07-10 21:33:00,
2013-07-10 17:38:00,85.7,69.2,29.83,WSW,237,2.0,6.0,58,0.00,,CLR,0.05,343.00,VWS V14.01,2013-07-10 21:38:00,
2013-07-10 17:43:00,85.7,70.7,29.83,WSW,251,5.0,5.0,61,0.00,,CLR,0.05,269.00,VWS V14.01,2013-07-10 21:43:00,
2013-07-10 17:48:00,85.3,70.3,29.83,SW,220,1.0,8.0,61,0.00,,CLR,0.05,257.00,VWS V14.01,2013-07-10 21:48:00,
2013-07-10 17:54:00,85.1,70.2,29.83,WSW,237,1.0,2.0,61,0.00,,CLR,0.05,243.00,VWS V14.01,2013-07-10 21:54:00,
2013-07-10 17:59:00,84.7,70.2,29.83,WSW,254,3.0,6.0,62,0.00,,CLR,0.05,229.00,VWS V14.01,2013-07-10 21:59:00,
2013-07-10 18:04:00,84.5,69.6,29.82,SW,226,1.0,6.0,61,0.00,,CLR,0.05,232.00,VWS V14.01,2013-07-10 22:04:00,
2013-07-10 18:09:00,84.1,69.7,29.82,WSW,237,5.0,7.0,62,0.00,,CLR,0.05,223.00,VWS V14.01,2013-07-10 22:09:00,
2013-07-10 18:14:00,83.9,69.5,29.82,West,268,2.0,6.0,62,0.00,,CLR,0.05,213.00,VWS V14.01,2013-07-10 22:14:00,
2013-07-10 18:19:00,83.7,69.3,29.82,South,174,2.0,10.0,62,0.00,,CLR,0.05,209.00,VWS V14.01,2013-07-10 22:19:00,
2013-07-10 18:24:00,83.7,68.8,29.82,SSW,212,6.0,6.0,61,0.00,,CLR,0.05,192.00,VWS V14.01,2013-07-10 22:24:00,
2013-07-10 18:29:00,83.3,68.9,29.82,SW,232,0.0,6.0,62,0.00,,CLR,0.05,174.00,VWS V14.01,2013-07-10 22:29:00,
2013-07-10 18:34:00,83.3,69.4,29.82,SSW,209,0.0,5.0,63,0.00,,CLR,0.05,169.00,VWS V14.01,2013-07-10 22:34:00,
2013-07-10 18:39:00,83.1,69.7,29.82,WSW,250,0.0,6.0,64,0.00,,CLR,0.05,167.00,VWS V14.01,2013-07-10 22:39:00,
2013-07-10 18:45:00,83.1,69.7,29.82,SSW,203,1.0,3.0,64,0.00,,CLR,0.05,164.00,VWS V14.01,2013-07-10 22:45:00,
2013-07-10 18:50:00,83.1,69.2,29.82,SSW,203,1.0,3.0,63,0.00,,CLR,0.05,148.00,VWS V14.01,2013-07-10 22:50:00,
2013-07-10 18:55:00,83.0,69.6,29.82,SW,234,2.0,5.0,64,0.00,,CLR,0.05,141.00,VWS V14.01,2013-07-10 22:55:00,
2013-07-10 19:00:00,83.0,69.6,29.82,SW,227,2.0,5.0,64,0.00,,CLR,0.05,141.00,VWS V14.01,2013-07-10 23:00:00,
2013-07-10 19:05:00,83.0,69.6,29.83,West,271,3.0,7.0,64,0.00,,CLR,0.05,114.00,VWS V14.01,2013-07-10 23:05:00,
2013-07-10 19:10:00,82.6,69.7,29.83,SW,227,1.0,7.0,65,0.00,,CLR,0.05,107.00,VWS V14.01,2013-07-10 23:10:00,
2013-07-10 19:15:00,82.4,69.5,29.83,WSW,258,0.0,0.0,65,0.00,,CLR,0.05,97.00,VWS V14.01,2013-07-10 23:15:00,
2013-07-10 19:20:00,82.4,69.5,29.84,SW,215,0.0,6.0,65,0.00,,CLR,0.05,97.00,VWS V14.01,2013-07-10 23:20:00,
2013-07-10 19:26:00,81.8,68.4,29.84,WSW,239,2.0,8.0,64,0.00,,CLR,0.05,72.00,VWS V14.01,2013-07-10 23:26:00,
2013-07-10 19:31:00,81.4,68.5,29.84,SW,216,7.0,8.0,65,0.00,,CLR,0.05,63.00,VWS V14.01,2013-07-10 23:31:00,
2013-07-10 19:36:00,81.0,68.1,29.84,SSW,206,3.0,5.0,65,0.00,,CLR,0.05,55.00,VWS V14.01,2013-07-10 23:36:00,
2013-07-10 19:41:00,80.8,67.9,29.84,SSW,213,0.0,6.0,65,0.00,,CLR,0.05,53.00,VWS V14.01,2013-07-10 23:41:00,
2013-07-10 19:46:00,80.6,68.2,29.84,SW,226,3.0,3.0,66,0.00,,CLR,0.05,51.00,VWS V14.01,2013-07-10 23:46:00,
2013-07-10 19:51:00,80.2,67.8,29.85,SSW,208,3.0,6.0,66,0.00,,CLR,0.05,51.00,VWS V14.01,2013-07-10 23:51:00,
2013-07-10 19:56:00,80.1,68.2,29.85,SSW,193,0.0,4.0,67,0.00,,CLR,0.05,44.00,VWS V14.01,2013-07-10 23:56:00,
2013-07-10 20:01:00,79.7,67.8,29.85,SW,223,2.0,5.0,67,0.00,,CLR,0.05,35.00,VWS V14.01,2013-07-11 00:01:00,
2013-07-10 20:06:00,79.5,68.0,29.84,SSW,210,3.0,7.0,68,0.00,,CLR,0.05,32.00,VWS V14.01,2013-07-11 00:06:00,
2013-07-10 20:12:00,79.1,68.1,29.84,SW,232,3.0,7.0,69,0.00,,CLR,0.05,26.00,VWS V14.01,2013-07-11 00:12:00,
2013-07-10 20:17:00,78.9,67.9,29.84,WSW,239,6.0,10.0,69,0.00,,CLR,0.05,19.00,VWS V14.01,2013-07-11 00:17:00,
2013-07-10 20:22:00,78.8,67.8,29.85,SSW,212,3.0,10.0,69,0.00,,CLR,0.05,16.00,VWS V14.01,2013-07-11 00:22:00,
2013-07-10 20:27:00,78.6,67.6,29.85,SSW,205,0.0,7.0,69,0.00,,CLR,0.05,12.00,VWS V14.01,2013-07-11 00:27:00,
2013-07-10 20:32:00,78.4,67.4,29.85,SW,217,3.0,8.0,69,0.00,,CLR,0.05,7.00,VWS V14.01,2013-07-11 00:32:00,
2013-07-10 20:37:00,78.4,67.8,29.85,SSW,202,5.0,7.0,70,0.00,,CLR,0.05,5.00,VWS V14.01,2013-07-11 00:37:00,
2013-07-10 20:42:00,78.2,67.6,29.85,SSW,213,2.0,7.0,70,0.00,,CLR,0.05,0.00,VWS V14.01,2013-07-11 00:42:00,
2013-07-10 20:47:00,78.2,67.6,29.86,SW,229,2.0,6.0,70,0.00,,CLR,0.05,0.00,VWS V14.01,2013-07-11 00:47:00,
2013-07-10 20:52:00,78.2,67.6,29.86,SSW,210,3.0,6.0,70,0.00,,CLR,0.05,0.00,VWS V14.01,2013-07-11 00:52:00,
2013-07-10 20:58:00,78.0,67.4,29.86,SSW,208,0.0,6.0,70,0.00,,CLR,0.05,0.00,VWS V14.01,2013-07-11 00:58:00,
2013-07-10 21:03:00,78.0,67.8,29.86,SW,236,0.0,6.0,71,0.00,,CLR,0.05,0.00,VWS V14.01,2013-07-11 01:03:00,
2013-07-10 21:08:00,77.8,67.7,29.86,SW,220,0.0,4.0,71,0.00,,CLR,0.05,0.00,VWS V14.01,2013-07-11 01:08:00,
2013-07-10 21:13:00,77.8,67.7,29.86,SSW,199,1.0,1.0,71,0.00,,CLR,0.05,0.00,VWS V14.01,2013-07-11 01:13:00,
2013-07-10 21:18:00,77.6,67.5,29.85,SW,216,2.0,7.0,71,0.00,,CLR,0.05,0.00,VWS V14.01,2013-07-11 01:18:00,
2013-07-10 21:23:00,77.5,67.8,29.85,SW,233,5.0,6.0,72,0.00,,CLR,0.05,0.00,VWS V14.01,2013-07-11 01:23:00,
2013-07-10 21:28:00,77.5,67.8,29.85,South,189,0.0,6.0,72,0.00,,CLR,0.05,0.00,VWS V14.01,2013-07-11 01:28:00,
2013-07-10 21:33:00,77.3,67.6,29.85,SW,232,1.0,2.0,72,0.00,,CLR,0.05,0.00,VWS V14.01,2013-07-11 01:33:00,
2013-07-10 21:38:00,77.1,67.8,29.85,SW,224,0.0,3.0,73,0.00,,CLR,0.05,0.00,VWS V14.01,2013-07-11 01:38:00,
2013-07-10 21:44:00,77.1,68.6,29.85,NNW,337,2.0,2.0,75,0.00,,CLR,0.05,0.00,VWS V14.01,2013-07-11 01:44:00,
2013-07-10 21:49:00,76.9,66.8,29.88,North,359,4.0,6.0,71,0.00,,CLR,0.05,0.00,VWS V14.01,2013-07-11 01:49:00,
2013-07-10 21:54:00,77.1,67.0,29.88,NNE,20,4.0,5.0,71,0.00,,CLR,0.05,0.00,VWS V14.01,2013-07-11 01:54:00,
2013-07-10 21:59:00,77.3,62.8,29.88,North,1,1.0,6.0,61,0.00,,CLR,0.05,0.00,VWS V14.01,2013-07-11 01:59:00,
2013-07-10 22:04:00,77.1,63.1,29.89,NNW,340,0.0,5.0,62,0.00,,CLR,0.05,0.00,VWS V14.01,2013-07-11 02:04:00,
2013-07-10 22:09:00,76.9,63.8,29.89,ENE,62,0.0,5.0,64,0.00,,CLR,0.05,0.00,VWS V14.01,2013-07-11 02:09:00,
2013-07-10 22:14:00,76.2,63.6,29.89,ENE,58,3.0,3.0,65,0.00,,CLR,0.05,0.00,VWS V14.01,2013-07-11 02:14:00,
2013-07-10 22:20:00,75.7,64.4,29.90,North,0,1.0,4.0,68,0.00,,CLR,0.05,0.00,VWS V14.01,2013-07-11 02:20:00,
2013-07-10 22:25:00,75.0,64.2,29.90,NNW,340,0.0,1.0,69,0.00,,CLR,0.05,0.00,VWS V14.01,2013-07-11 02:25:00,
2013-07-10 22:30:00,74.4,64.0,29.90,NNE,24,0.0,2.0,70,0.00,,CLR,0.05,0.00,VWS V14.01,2013-07-11 02:30:00,
2013-07-10 22:35:00,74.1,64.1,29.90,NW,323,0.0,4.0,71,0.00,,CLR,0.05,0.00,VWS V14.01,2013-07-11 02:35:00,
2013-07-10 22:40:00,73.9,63.9,29.90,NNW,342,0.0,6.0,71,0.00,,CLR,0.05,0.00,VWS V14.01,2013-07-11 02:40:00,
2013-07-10 22:43:00,73.7,63.7,29.90,NW,325,1.0,2.0,71,0.00,,CLR,0.05,0.00,VWS V14.01,2013-07-11 02:43:00,
2013-07-10 22:48:00,73.6,63.6,29.90,NW,325,0.0,2.0,71,0.00,,CLR,0.05,0.00,VWS V14.01,2013-07-11 02:48:00,
2013-07-10 22:53:00,73.4,63.8,29.90,NW,326,0.0,0.0,72,0.00,,CLR,0.05,0.00,VWS V14.01,2013-07-11 02:53:00,
2013-07-10 22:58:00,73.2,63.6,29.90,NW,325,0.0,0.0,72,0.00,,CLR,0.05,0.00,VWS V14.01,2013-07-11 02:58:00,
2013-07-10 23:03:00,72.9,63.8,29.89,NW,325,0.0,0.0,73,0.00,,CLR,0.05,0.00,VWS V14.01,2013-07-11 03:03:00,
2013-07-10 23:08:00,72.7,63.9,29.89,NW,325,0.0,0.0,74,0.00,,CLR,0.05,0.00,VWS V14.01,2013-07-11 03:08:00,
2013-07-10 23:13:00,72.5,63.8,29.89,NW,325,0.0,0.0,74,0.00,,CLR,0.05,0.00,VWS V14.01,2013-07-11 03:13:00,
2013-07-10 23:18:00,72.2,63.8,29.88,NW,325,0.0,0.0,75,0.00,,CLR,0.05,0.00,VWS V14.01,2013-07-11 03:18:00,
2013-07-10 23:23:00,72.0,63.7,29.88,NW,325,0.0,0.0,75,0.00,,CLR,0.05,0.00,VWS V14.01,2013-07-11 03:23:00,
2013-07-10 23:29:00,71.8,63.8,29.88,NW,325,0.0,0.0,76,0.00,,CLR,0.05,0.00,VWS V14.01,2013-07-11 03:29:00,
2013-07-10 23:34:00,71.7,64.1,29.88,NW,326,0.0,0.0,77,0.00,,CLR,0.05,0.00,VWS V14.01,2013-07-11 03:34:00,
2013-07-10 23:39:00,71.5,63.9,29.88,NW,325,0.0,0.0,77,0.00,,CLR,0.05,0.00,VWS V14.01,2013-07-11 03:39:00,
2013-07-10 23:44:00,71.5,63.9,29.88,NW,325,0.0,0.0,77,0.00,,CLR,0.05,0.00,VWS V14.01,2013-07-11 03:44:00,
2013-07-10 23:49:00,71.3,64.5,29.86,NW,325,0.0,0.0,79,0.00,,CLR,0.05,0.00,VWS V14.01,2013-07-11 03:49:00,
2013-07-10 23:54:00,71.1,64.3,29.86,NW,325,0.0,0.0,79,0.00,,CLR,0.05,0.00,VWS V14.01,2013-07-11 03:54:00,
2013-07-10 23:59:00,71.1,64.3,29.86,NW,325,0.0,0.0,79,0.00,,CLR,0.05,0.00,VWS V14.01,2013-07-11 03:59:00,